Location: Unspecified
(0.0000°N, 0.0000°E)
Time: 04:47:28
(UTC+00:00)

SRMSAT - Pass Details

Date: 01 April 2019
Orbit: 848 x 866 km, 20.0° (Epoch: 17 June)

Event Time Altitude Azimuth Distance (km) Brightness Sun altitude
Rises 19:27:06 0° 238° (WSW) 3,420 ? -20.7°
Reaches altitude 10° 19:29:46 10° 232° (SW) 2,480 ? -21.4°
Maximum altitude 19:35:29 47° 160° (SSE) 1,117 ? -22.8°
Enters shadow 19:36:20 44° 135° (SE) 1,165 ? -23.0°
